Time,TemperatureF,DewpointF,PressureIn,WindDirection,WindDirectionDegrees,WindSpeedMPH,WindSpeedGustMPH,Humidity,HourlyPrecipIn,Conditions,Clouds,dailyrainin,SolarRadiationWatts/m^2,SoftwareType,DateUTC
2013-01-23 00:00:00,11.1,-1.1,30.01,NW,311,6.0,7.0,57,0.00,,OVC021,0.00,0.00,VWS V14.01,2013-01-23 05:00:00,
2013-01-23 00:05:00,11.0,-1.2,30.01,WNW,297,3.0,8.0,57,0.00,,OVC021,0.00,0.00,VWS V14.01,2013-01-23 05:05:00,
2013-01-23 00:10:00,10.8,-1.4,30.00,WNW,288,5.0,7.0,57,0.00,,OVC021,0.00,0.00,VWS V14.01,2013-01-23 05:10:00,
2013-01-23 00:15:00,10.7,-1.9,30.01,WNW,288,7.0,9.0,56,0.00,,OVC021,0.00,0.00,VWS V14.01,2013-01-23 05:15:00,
2013-01-23 00:20:00,10.6,-2.0,30.00,West,279,4.0,12.0,56,0.00,,OVC021,0.00,0.00,VWS V14.01,2013-01-23 05:20:00,
2013-01-23 00:25:00,10.5,-2.1,30.00,WNW,300,8.0,9.0,56,0.00,,OVC021,0.00,0.00,VWS V14.01,2013-01-23 05:25:00,
2013-01-23 00:30:00,10.4,-1.8,30.01,West,263,3.0,9.0,57,0.00,,OVC021,0.00,0.00,VWS V14.01,2013-01-23 05:30:00,
2013-01-23 00:35:00,10.3,-1.9,30.00,WNW,292,3.0,7.0,57,0.00,,OVC021,0.00,0.00,VWS V14.01,2013-01-23 05:35:00,
2013-01-23 00:40:00,10.2,-2.0,30.00,West,270,6.0,9.0,57,0.00,,OVC021,0.00,0.00,VWS V14.01,2013-01-23 05:40:00,
2013-01-23 00:45:00,10.1,-2.1,30.00,West,279,7.0,8.0,57,0.00,,OVC021,0.00,0.00,VWS V14.01,2013-01-23 05:45:00,
2013-01-23 00:50:00,10.0,-2.5,30.00,West,279,6.0,9.0,56,0.00,,OVC021,0.00,0.00,VWS V14.01,2013-01-23 05:50:00,
2013-01-23 00:55:00,10.0,-2.5,30.00,WNW,298,3.0,8.0,56,0.00,,OVC021,0.00,0.00,VWS V14.01,2013-01-23 05:55:00,
2013-01-23 01:00:00,9.9,-2.7,30.00,West,268,4.0,9.0,56,0.00,,OVC021,0.00,0.00,VWS V14.01,2013-01-23 06:00:00,
2013-01-23 01:05:00,9.8,-3.1,30.00,West,270,7.0,9.0,55,0.00,,OVC021,0.00,0.00,VWS V14.01,2013-01-23 06:05:00,
2013-01-23 01:10:00,9.8,-3.1,30.00,WNW,286,5.0,7.0,55,0.00,,OVC021,0.00,0.00,VWS V14.01,2013-01-23 06:10:00,
2013-01-23 01:15:00,9.7,-3.2,30.00,WNW,292,3.0,11.0,55,0.00,,OVC021,0.00,0.00,VWS V14.01,2013-01-23 06:15:00,
2013-01-23 01:20:00,9.7,-3.6,30.00,NW,313,3.0,10.0,54,0.00,,OVC021,0.00,0.00,VWS V14.01,2013-01-23 06:20:00,
2013-01-23 01:25:00,9.6,-3.7,30.00,West,273,6.0,10.0,54,0.00,,OVC021,0.00,0.00,VWS V14.01,2013-01-23 06:25:00,
2013-01-23 01:30:00,9.6,-3.7,30.00,WNW,302,3.0,8.0,54,0.00,,OVC021,0.00,0.00,VWS V14.01,2013-01-23 06:30:00,
2013-01-23 01:35:00,9.6,-4.1,30.00,NW,311,5.0,8.0,53,0.00,,OVC021,0.00,0.00,VWS V14.01,2013-01-23 06:35:00,
2013-01-23 01:40:00,9.6,-4.1,30.00,WNW,297,5.0,8.0,53,0.00,,OVC021,0.00,0.00,VWS V14.01,2013-01-23 06:40:00,
2013-01-23 01:45:00,9.6,-4.1,30.00,WNW,298,5.0,8.0,53,0.00,,OVC021,0.00,0.00,VWS V14.01,2013-01-23 06:45:00,
2013-01-23 01:50:00,9.5,-4.2,30.00,WNW,289,4.0,7.0,53,0.00,,OVC021,0.00,0.00,VWS V14.01,2013-01-23 06:50:00,
2013-01-23 01:55:00,9.5,-4.6,30.01,WNW,289,4.0,10.0,52,0.00,,OVC021,0.00,0.00,VWS V14.01,2013-01-23 06:55:00,
2013-01-23 02:00:00,9.6,-4.5,30.01,WNW,296,2.0,12.0,52,0.00,,OVC021,0.00,0.00,VWS V14.01,2013-01-23 07:00:00,
2013-01-23 02:05:00,9.5,-4.6,30.01,West,275,4.0,12.0,52,0.00,,OVC021,0.00,0.00,VWS V14.01,2013-01-23 07:05:00,
2013-01-23 02:10:00,9.5,-4.6,30.01,NW,309,4.0,11.0,52,0.00,,OVC021,0.00,0.00,VWS V14.01,2013-01-23 07:10:00,
2013-01-23 02:15:00,9.4,-4.7,30.01,WNW,287,9.0,12.0,52,0.00,,OVC021,0.00,0.00,VWS V14.01,2013-01-23 07:15:00,
2013-01-23 02:20:00,9.4,-4.7,30.01,West,281,5.0,9.0,52,0.00,,OVC021,0.00,0.00,VWS V14.01,2013-01-23 07:20:00,
2013-01-23 02:25:00,9.4,-4.7,30.01,West,281,7.0,11.0,52,0.00,,OVC021,0.00,0.00,VWS V14.01,2013-01-23 07:25:00,
2013-01-23 02:30:00,9.3,-4.8,30.01,West,274,5.0,8.0,52,0.00,,OVC021,0.00,0.00,VWS V14.01,2013-01-23 07:30:00,
2013-01-23 02:35:00,9.3,-4.8,30.02,NW,311,6.0,8.0,52,0.00,,OVC021,0.00,0.00,VWS V14.01,2013-01-23 07:35:00,
2013-01-23 02:40:00,9.3,-4.8,30.02,WNW,290,8.0,10.0,52,0.00,,OVC021,0.00,0.00,VWS V14.01,2013-01-23 07:40:00,
2013-01-23 02:45:00,9.2,-4.4,30.02,WNW,290,4.0,9.0,53,0.00,,OVC021,0.00,0.00,VWS V14.01,2013-01-23 07:45:00,
2013-01-23 02:50:00,9.1,-4.6,30.02,WSW,248,8.0,8.0,53,0.00,,OVC021,0.00,0.00,VWS V14.01,2013-01-23 07:50:00,
2013-01-23 02:55:00,9.1,-4.2,30.02,West,279,5.0,11.0,54,0.00,,OVC021,0.00,0.00,VWS V14.01,2013-01-23 07:55:00,
2013-01-23 03:00:00,9.1,-4.2,30.02,West,267,6.0,9.0,54,0.00,,OVC021,0.00,0.00,VWS V14.01,2013-01-23 08:00:00,
2013-01-23 03:05:00,9.0,-3.9,30.02,West,263,5.0,10.0,55,0.00,,OVC021,0.00,0.00,VWS V14.01,2013-01-23 08:05:00,
2013-01-23 03:10:00,8.9,-4.0,30.02,WNW,290,3.0,8.0,55,0.00,,OVC021,0.00,0.00,VWS V14.01,2013-01-23 08:10:00,
2013-01-23 03:15:00,8.7,-3.8,30.02,West,271,4.0,7.0,56,0.00,,OVC021,0.00,0.00,VWS V14.01,2013-01-23 08:15:00,
2013-01-23 03:20:00,8.8,-3.3,30.02,West,272,6.0,9.0,57,0.00,,OVC021,0.00,0.00,VWS V14.01,2013-01-23 08:20:00,
2013-01-23 03:25:00,8.7,-3.4,30.02,West,272,3.0,10.0,57,0.00,,OVC021,0.00,0.00,VWS V14.01,2013-01-23 08:25:00,
2013-01-23 03:30:00,8.7,-3.4,30.03,West,267,7.0,9.0,57,0.00,,OVC021,0.00,0.00,VWS V14.01,2013-01-23 08:30:00,
2013-01-23 03:35:00,8.6,-3.1,30.02,West,274,3.0,8.0,58,0.00,,OVC021,0.00,0.00,VWS V14.01,2013-01-23 08:35:00,
2013-01-23 03:40:00,8.5,-2.9,30.02,West,261,2.0,7.0,59,0.00,,OVC021,0.00,0.00,VWS V14.01,2013-01-23 08:40:00,
2013-01-23 03:45:00,8.4,-3.0,30.02,West,274,5.0,8.0,59,0.00,,OVC021,0.00,0.00,VWS V14.01,2013-01-23 08:45:00,
2013-01-23 03:50:00,8.4,-2.6,30.02,West,265,4.0,9.0,60,0.00,,OVC021,0.00,0.00,VWS V14.01,2013-01-23 08:50:00,
2013-01-23 03:55:00,8.3,-2.4,30.02,WSW,257,4.0,9.0,61,0.00,,OVC021,0.00,0.00,VWS V14.01,2013-01-23 08:55:00,
2013-01-23 04:00:00,8.2,-2.1,30.02,West,273,3.0,8.0,62,0.00,,OVC021,0.00,0.00,VWS V14.01,2013-01-23 09:00:00,
2013-01-23 04:05:00,8.2,-2.1,30.02,WSW,256,4.0,10.0,62,0.00,,OVC021,0.00,0.00,VWS V14.01,2013-01-23 09:05:00,
2013-01-23 04:10:00,8.1,-2.2,30.01,WSW,255,8.0,11.0,62,0.00,,OVC021,0.00,0.00,VWS V14.01,2013-01-23 09:10:00,
2013-01-23 04:15:00,8.0,-2.3,30.02,West,277,7.0,9.0,62,0.00,,OVC021,0.00,0.00,VWS V14.01,2013-01-23 09:15:00,
2013-01-23 04:20:00,8.0,-2.0,30.02,West,277,7.0,9.0,63,0.00,,OVC021,0.00,0.00,VWS V14.01,2013-01-23 09:20:00,
2013-01-23 04:25:00,8.0,-2.0,30.02,WSW,247,2.0,11.0,63,0.00,,OVC021,0.00,0.00,VWS V14.01,2013-01-23 09:25:00,
2013-01-23 04:30:00,8.0,-2.0,30.02,WSW,258,6.0,12.0,63,0.00,,OVC021,0.00,0.00,VWS V14.01,2013-01-23 09:30:00,
2013-01-23 04:35:00,8.0,-2.3,30.02,West,261,10.0,13.0,62,0.00,,OVC021,0.00,0.00,VWS V14.01,2013-01-23 09:35:00,
2013-01-23 04:40:00,8.1,-2.2,30.02,WSW,252,8.0,11.0,62,0.00,,OVC021,0.00,0.00,VWS V14.01,2013-01-23 09:40:00,
2013-01-23 04:45:00,8.0,-2.7,30.03,WSW,256,10.0,10.0,61,0.00,,OVC021,0.00,0.00,VWS V14.01,2013-01-23 09:45:00,
2013-01-23 04:50:00,7.9,-3.1,30.02,WNW,291,3.0,11.0,60,0.00,,OVC021,0.00,0.00,VWS V14.01,2013-01-23 09:50:00,
2013-01-23 04:55:00,8.0,-3.7,30.03,West,265,10.0,14.0,58,0.00,,OVC021,0.00,0.00,VWS V14.01,2013-01-23 09:55:00,
2013-01-23 05:00:00,8.1,-4.0,30.03,West,261,6.0,13.0,57,0.00,,OVC021,0.00,0.00,VWS V14.01,2013-01-23 10:00:00,
2013-01-23 05:05:00,8.1,-4.7,30.03,West,269,4.0,12.0,55,0.00,,OVC021,0.00,0.00,VWS V14.01,2013-01-23 10:05:00,
2013-01-23 05:10:00,8.0,-4.4,30.03,West,277,3.0,8.0,56,0.00,,OVC021,0.00,0.00,VWS V14.01,2013-01-23 10:10:00,
2013-01-23 05:15:00,7.9,-4.5,30.03,WNW,284,4.0,11.0,56,0.00,,OVC021,0.00,0.00,VWS V14.01,2013-01-23 10:15:00,
2013-01-23 05:20:00,7.8,-4.6,30.04,West,263,4.0,6.0,56,0.00,,OVC021,0.00,0.00,VWS V14.01,2013-01-23 10:20:00,
2013-01-23 05:25:00,7.7,-4.7,30.03,West,259,5.0,6.0,56,0.00,,OVC021,0.00,0.00,VWS V14.01,2013-01-23 10:25:00,
2013-01-23 05:30:00,7.7,-4.7,30.03,West,261,5.0,9.0,56,0.00,,OVC021,0.00,0.00,VWS V14.01,2013-01-23 10:30:00,
2013-01-23 05:35:00,7.7,-5.1,30.03,WSW,248,10.0,13.0,55,0.00,,OVC021,0.00,0.00,VWS V14.01,2013-01-23 10:35:00,
2013-01-23 05:40:00,7.7,-5.5,30.03,West,264,5.0,10.0,54,0.00,,OVC021,0.00,0.00,VWS V14.01,2013-01-23 10:40:00,
2013-01-23 05:45:00,7.6,-5.9,30.04,West,270,6.0,9.0,53,0.00,,OVC021,0.00,0.00,VWS V14.01,2013-01-23 10:45:00,
2013-01-23 05:50:00,7.6,-5.9,30.04,West,259,5.0,11.0,53,0.00,,OVC021,0.00,0.00,VWS V14.01,2013-01-23 10:50:00,
2013-01-23 05:55:00,7.6,-6.3,30.04,WNW,293,8.0,15.0,52,0.00,,OVC021,0.00,0.00,VWS V14.01,2013-01-23 10:55:00,
2013-01-23 06:00:00,7.6,-6.7,30.04,WNW,285,6.0,9.0,51,0.00,,OVC021,0.00,0.00,VWS V14.01,2013-01-23 11:00:00,
2013-01-23 06:01:00,7.5,-6.8,30.04,WNW,286,6.0,9.0,51,0.00,,OVC021,0.00,0.00,VWS V14.01,2013-01-23 11:01:00,
2013-01-23 06:03:00,7.5,-6.8,30.04,West,271,9.0,9.0,51,0.00,,OVC021,0.00,0.00,VWS V14.01,2013-01-23 11:03:00,
2013-01-23 06:05:00,7.5,-6.8,30.04,West,265,6.0,10.0,51,0.00,,OVC021,0.00,0.00,VWS V14.01,2013-01-23 11:05:00,
2013-01-23 06:10:00,7.5,-7.2,30.04,West,270,7.0,12.0,50,0.00,,OVC021,0.00,0.00,VWS V14.01,2013-01-23 11:10:00,
2013-01-23 06:15:00,7.4,-7.3,30.04,WNW,292,6.0,12.0,50,0.00,,OVC021,0.00,0.00,VWS V14.01,2013-01-23 11:15:00,
2013-01-23 06:20:00,7.3,-7.4,30.05,WNW,292,4.0,9.0,50,0.00,,OVC021,0.00,0.00,VWS V14.01,2013-01-23 11:20:00,
2013-01-23 06:25:00,7.2,-7.1,30.05,WNW,292,4.0,6.0,51,0.00,,OVC021,0.00,0.00,VWS V14.01,2013-01-23 11:25:00,
2013-01-23 06:30:00,7.1,-7.6,30.05,WNW,292,6.0,9.0,50,0.00,,OVC021,0.00,0.00,VWS V14.01,2013-01-23 11:30:00,
2013-01-23 06:35:00,7.1,-7.2,30.05,West,270,6.0,11.0,51,0.00,,OVC021,0.00,0.00,VWS V14.01,2013-01-23 11:35:00,
2013-01-23 06:40:00,7.1,-7.2,30.05,West,270,7.0,12.0,51,0.00,,OVC021,0.00,0.00,VWS V14.01,2013-01-23 11:40:00,
2013-01-23 06:45:00,7.1,-7.2,30.05,West,270,7.0,13.0,51,0.00,,OVC021,0.00,0.00,VWS V14.01,2013-01-23 11:45:00,
2013-01-23 06:50:00,7.0,-7.3,30.05,West,270,8.0,14.0,51,0.00,,OVC021,0.00,0.00,VWS V14.01,2013-01-23 11:50:00,
2013-01-23 06:55:00,6.9,-7.8,30.05,West,270,8.0,18.0,50,0.00,,OVC021,0.00,0.00,VWS V14.01,2013-01-23 11:55:00,
2013-01-23 07:00:00,6.9,-7.8,30.05,West,270,8.0,18.0,50,0.00,,OVC021,0.00,0.00,VWS V14.01,2013-01-23 12:00:00,
2013-01-23 07:05:00,6.9,-8.2,30.05,West,270,6.0,13.0,49,0.00,,OVC021,0.00,0.00,VWS V14.01,2013-01-23 12:05:00,
2013-01-23 07:10:00,6.8,-7.9,30.05,West,270,5.0,9.0,50,0.00,,OVC021,0.00,0.00,VWS V14.01,2013-01-23 12:10:00,
2013-01-23 07:15:00,6.7,-8.8,30.05,West,270,5.0,9.0,48,0.00,,OVC021,0.00,5.00,VWS V14.01,2013-01-23 12:15:00,
2013-01-23 07:20:00,6.7,-8.8,30.05,WNW,292,5.0,10.0,48,0.00,,OVC021,0.00,6.00,VWS V14.01,2013-01-23 12:20:00,
2013-01-23 07:25:00,6.7,-8.8,30.05,West,270,5.0,10.0,48,0.00,,OVC021,0.00,9.00,VWS V14.01,2013-01-23 12:25:00,
2013-01-23 07:30:00,6.7,-8.4,30.06,WNW,292,4.0,6.0,49,0.00,,OVC021,0.00,12.00,VWS V14.01,2013-01-23 12:30:00,
2013-01-23 07:35:00,6.7,-8.8,30.06,WNW,292,3.0,8.0,48,0.00,,OVC021,0.00,20.00,VWS V14.01,2013-01-23 12:35:00,
2013-01-23 07:40:00,6.8,-8.7,30.06,West,270,4.0,7.0,48,0.00,,OVC021,0.00,40.00,VWS V14.01,2013-01-23 12:40:00,
2013-01-23 07:45:00,7.0,-9.0,30.06,West,270,5.0,9.0,47,0.00,,OVC021,0.00,52.00,VWS V14.01,2013-01-23 12:45:00,
2013-01-23 07:50:00,7.2,-9.2,30.06,West,270,6.0,12.0,46,0.00,,OVC021,0.00,66.00,VWS V14.01,2013-01-23 12:50:00,
2013-01-23 07:55:00,7.3,-9.1,30.06,WNW,292,5.0,10.0,46,0.00,,OVC021,0.00,80.00,VWS V14.01,2013-01-23 12:55:00,
2013-01-23 08:00:00,7.4,-9.0,30.06,WNW,292,4.0,6.0,46,0.00,,OVC021,0.00,92.00,VWS V14.01,2013-01-23 13:00:00,
2013-01-23 08:05:00,7.6,-8.9,30.06,NW,315,4.0,6.0,46,0.00,,OVC021,0.00,106.00,VWS V14.01,2013-01-23 13:05:00,
2013-01-23 08:10:00,7.7,-8.8,30.06,West,270,5.0,9.0,46,0.00,,OVC021,0.00,122.00,VWS V14.01,2013-01-23 13:10:00,
2013-01-23 08:15:00,7.8,-9.1,30.07,West,270,8.0,12.0,45,0.00,,OVC021,0.00,139.00,VWS V14.01,2013-01-23 13:15:00,
2013-01-23 08:20:00,7.7,-8.8,30.07,West,270,8.0,15.0,46,0.00,,OVC021,0.00,155.00,VWS V14.01,2013-01-23 13:20:00,
2013-01-23 08:25:00,7.9,-9.0,30.07,WNW,292,8.0,14.0,45,0.00,,OVC021,0.00,172.00,VWS V14.01,2013-01-23 13:25:00,
2013-01-23 08:30:00,7.8,-9.1,30.07,West,270,10.0,17.0,45,0.00,,OVC021,0.00,189.00,VWS V14.01,2013-01-23 13:30:00,
2013-01-23 08:35:00,7.9,-9.5,30.07,West,270,8.0,14.0,44,0.00,,OVC021,0.00,204.00,VWS V14.01,2013-01-23 13:35:00,
2013-01-23 08:40:00,8.0,-9.4,30.07,West,270,9.0,16.0,44,0.00,,OVC021,0.00,218.00,VWS V14.01,2013-01-23 13:40:00,
2013-01-23 08:45:00,8.0,-8.9,30.07,West,270,9.0,13.0,45,0.00,,OVC021,0.00,233.00,VWS V14.01,2013-01-23 13:45:00,
2013-01-23 08:50:00,8.1,-9.3,30.07,WNW,292,11.0,19.0,44,0.00,,OVC021,0.00,247.00,VWS V14.01,2013-01-23 13:50:00,
2013-01-23 08:55:00,9.1,-10.3,30.07,West,269,17.0,24.0,40,0.00,,OVC021,0.00,390.00,VWS V14.01,2013-01-23 13:55:00,
2013-01-23 08:58:00,8.1,-9.3,30.07,WNW,292,11.0,19.0,44,0.00,,OVC021,0.00,247.00,VWS V14.01,2013-01-23 13:58:00,
2013-01-23 09:00:00,8.3,-9.6,30.07,WNW,297,8.0,11.0,43,0.00,,OVC021,0.00,244.00,VWS V14.01,2013-01-23 14:00:00,
2013-01-23 09:03:00,8.2,-10.1,30.07,West,269,10.0,15.0,42,0.00,,OVC021,0.00,287.00,VWS V14.01,2013-01-23 14:03:00,
2013-01-23 09:05:00,8.2,-10.1,30.07,West,269,10.0,15.0,42,0.00,,OVC021,0.00,287.00,VWS V14.01,2013-01-23 14:05:00,
2013-01-23 09:08:00,8.4,-10.0,30.07,WNW,291,13.0,21.0,42,0.00,,OVC021,0.00,299.00,VWS V14.01,2013-01-23 14:08:00,
2013-01-23 09:10:00,8.4,-10.0,30.07,WNW,291,13.0,21.0,42,0.00,,OVC021,0.00,299.00,VWS V14.01,2013-01-23 14:10:00,
2013-01-23 09:13:00,8.4,-10.0,30.07,NW,310,4.0,15.0,42,0.00,,OVC021,0.00,311.00,VWS V14.01,2013-01-23 14:13:00,
2013-01-23 09:15:00,8.4,-10.0,30.07,NW,310,4.0,15.0,42,0.00,,OVC021,0.00,311.00,VWS V14.01,2013-01-23 14:15:00,
2013-01-23 09:18:00,8.6,-10.3,30.08,West,269,9.0,22.0,41,0.00,,OVC021,0.00,322.00,VWS V14.01,2013-01-23 14:18:00,
2013-01-23 09:20:00,8.6,-10.3,30.08,West,269,9.0,22.0,41,0.00,,OVC021,0.00,322.00,VWS V14.01,2013-01-23 14:20:00,
2013-01-23 09:23:00,8.7,-10.2,30.08,NW,305,9.0,17.0,41,0.00,,OVC021,0.00,334.00,VWS V14.01,2013-01-23 14:23:00,
2013-01-23 09:25:00,8.7,-10.2,30.08,NW,305,9.0,17.0,41,0.00,,OVC021,0.00,334.00,VWS V14.01,2013-01-23 14:25:00,
2013-01-23 09:28:00,8.7,-9.7,30.07,West,279,13.0,18.0,42,0.00,,OVC021,0.00,343.00,VWS V14.01,2013-01-23 14:28:00,
2013-01-23 09:30:00,8.7,-9.7,30.07,West,279,13.0,18.0,42,0.00,,OVC021,0.00,343.00,VWS V14.01,2013-01-23 14:30:00,
2013-01-23 09:33:00,9.1,-9.8,30.07,NW,304,5.0,5.0,41,0.00,,OVC021,0.00,355.00,VWS V14.01,2013-01-23 14:33:00,
2013-01-23 09:35:00,9.1,-9.8,30.07,WNW,285,2.0,15.0,41,0.00,,OVC021,0.00,355.00,VWS V14.01,2013-01-23 14:35:00,
2013-01-23 09:38:00,9.2,-9.7,30.08,NW,304,11.0,14.0,41,0.00,,OVC021,0.00,362.00,VWS V14.01,2013-01-23 14:38:00,
2013-01-23 09:40:00,9.3,-9.6,30.07,WNW,292,12.0,12.0,41,0.00,,OVC021,0.00,362.00,VWS V14.01,2013-01-23 14:40:00,
2013-01-23 09:43:00,9.1,-9.3,30.07,West,263,17.0,17.0,42,0.00,,OVC021,0.00,373.00,VWS V14.01,2013-01-23 14:43:00,
2013-01-23 09:45:00,9.1,-9.3,30.07,West,265,8.0,14.0,42,0.00,,OVC021,0.00,371.00,VWS V14.01,2013-01-23 14:45:00,
2013-01-23 09:48:00,8.9,-10.5,30.07,West,265,10.0,11.0,40,0.00,,OVC021,0.00,383.00,VWS V14.01,2013-01-23 14:48:00,
2013-01-23 09:50:00,8.9,-10.5,30.08,WSW,237,9.0,20.0,40,0.00,,OVC021,0.00,383.00,VWS V14.01,2013-01-23 14:50:00,
2013-01-23 09:53:00,9.1,-10.3,30.07,West,271,13.0,17.0,40,0.00,,OVC021,0.00,390.00,VWS V14.01,2013-01-23 14:53:00,
2013-01-23 09:55:00,9.1,-10.3,30.07,West,269,17.0,24.0,40,0.00,,OVC021,0.00,390.00,VWS V14.01,2013-01-23 14:55:00,
2013-01-23 09:59:00,9.1,-10.3,30.07,NW,323,7.0,11.0,40,0.00,,OVC021,0.00,399.00,VWS V14.01,2013-01-23 14:59:00,
2013-01-23 10:00:00,9.0,-10.4,30.07,WNW,288,6.0,19.0,40,0.00,,OVC021,0.00,399.00,VWS V14.01,2013-01-23 15:00:00,
2013-01-23 10:04:00,9.5,-10.5,30.07,NW,311,8.0,9.0,39,0.00,,OVC021,0.00,406.00,VWS V14.01,2013-01-23 15:04:00,
2013-01-23 10:05:00,9.5,-10.5,30.07,WNW,296,7.0,17.0,39,0.00,,OVC021,0.00,406.00,VWS V14.01,2013-01-23 15:05:00,
2013-01-23 10:09:00,9.1,-11.3,30.07,West,278,14.0,15.0,38,0.00,,OVC021,0.00,415.00,VWS V14.01,2013-01-23 15:09:00,
2013-01-23 10:10:00,9.2,-11.2,30.07,West,279,12.0,22.0,38,0.00,,OVC021,0.00,415.00,VWS V14.01,2013-01-23 15:10:00,
2013-01-23 10:14:00,9.1,-10.8,30.07,WNW,292,11.0,20.0,39,0.00,,OVC021,0.00,418.00,VWS V14.01,2013-01-23 15:14:00,
2013-01-23 10:15:00,9.0,-10.9,30.07,NW,311,16.0,18.0,39,0.00,,OVC021,0.00,420.00,VWS V14.01,2013-01-23 15:15:00,
2013-01-23 10:19:00,9.1,-11.3,30.07,West,263,14.0,16.0,38,0.00,,OVC021,0.00,427.00,VWS V14.01,2013-01-23 15:19:00,
2013-01-23 10:20:00,9.1,-11.3,30.07,West,266,12.0,20.0,38,0.00,,OVC021,0.00,427.00,VWS V14.01,2013-01-23 15:20:00,
2013-01-23 10:24:00,9.4,-10.0,30.07,WSW,242,7.0,11.0,40,0.00,,OVC021,0.00,434.00,VWS V14.01,2013-01-23 15:24:00,
2013-01-23 10:25:00,9.3,-10.1,30.07,West,277,8.0,20.0,40,0.00,,OVC021,0.00,432.00,VWS V14.01,2013-01-23 15:25:00,
2013-01-23 10:29:00,9.6,-10.4,30.06,WNW,284,8.0,13.0,39,0.00,,OVC021,0.00,441.00,VWS V14.01,2013-01-23 15:29:00,
2013-01-23 10:30:00,9.6,-10.9,30.06,WNW,289,13.0,25.0,38,0.00,,OVC021,0.00,439.00,VWS V14.01,2013-01-23 15:30:00,
2013-01-23 10:34:00,9.7,-10.8,30.06,West,259,14.0,18.0,38,0.00,,OVC021,0.00,448.00,VWS V14.01,2013-01-23 15:34:00,
2013-01-23 10:35:00,9.8,-10.2,30.06,West,259,15.0,22.0,39,0.00,,OVC021,0.00,446.00,VWS V14.01,2013-01-23 15:35:00,
2013-01-23 10:39:00,9.9,-9.6,30.06,West,279,7.0,11.0,40,0.00,,OVC021,0.00,454.00,VWS V14.01,2013-01-23 15:39:00,
2013-01-23 10:40:00,9.7,-10.3,30.06,NW,323,10.0,18.0,39,0.00,,OVC021,0.00,454.00,VWS V14.01,2013-01-23 15:40:00,
2013-01-23 10:44:00,10.2,-9.8,30.06,NNW,347,12.0,18.0,39,0.00,,OVC021,0.00,459.00,VWS V14.01,2013-01-23 15:44:00,
2013-01-23 10:45:00,10.2,-9.8,30.06,NW,317,10.0,19.0,39,0.00,,OVC021,0.00,457.00,VWS V14.01,2013-01-23 15:45:00,
2013-01-23 10:49:00,10.2,-10.9,30.06,NW,317,12.0,19.0,37,0.00,,OVC021,0.00,459.00,VWS V14.01,2013-01-23 15:49:00,
2013-01-23 10:50:00,10.4,-10.2,30.06,NW,325,13.0,28.0,38,0.00,,OVC021,0.00,461.00,VWS V14.01,2013-01-23 15:50:00,
2013-01-23 10:54:00,10.0,-10.5,30.06,NNW,327,5.0,12.0,38,0.00,,OVC021,0.00,466.00,VWS V14.01,2013-01-23 15:54:00,
2013-01-23 10:55:00,10.0,-10.5,30.06,WNW,288,10.0,20.0,38,0.00,,OVC021,0.00,466.00,VWS V14.01,2013-01-23 15:55:00,
2013-01-23 10:59:00,10.0,-11.1,30.05,NW,323,18.0,22.0,37,0.00,,OVC021,0.00,471.00,VWS V14.01,2013-01-23 15:59:00,
2013-01-23 11:00:00,10.0,-11.1,30.05,NW,311,11.0,22.0,37,0.00,,OVC021,0.00,476.00,VWS V14.01,2013-01-23 16:00:00,
2013-01-23 11:04:00,9.9,-10.6,30.05,WNW,284,18.0,20.0,38,0.00,,OVC021,0.00,475.00,VWS V14.01,2013-01-23 16:04:00,
2013-01-23 11:05:00,9.8,-11.2,30.05,WNW,300,11.0,24.0,37,0.00,,OVC021,0.00,475.00,VWS V14.01,2013-01-23 16:05:00,
2013-01-23 11:09:00,10.0,-11.1,30.05,NW,321,11.0,18.0,37,0.00,,OVC021,0.00,476.00,VWS V14.01,2013-01-23 16:09:00,
2013-01-23 11:10:00,10.0,-10.5,30.05,NW,320,17.0,20.0,38,0.00,,OVC021,0.00,478.00,VWS V14.01,2013-01-23 16:10:00,
2013-01-23 11:14:00,10.8,-8.8,30.05,NW,315,8.0,16.0,40,0.00,,OVC021,0.00,478.00,VWS V14.01,2013-01-23 16:14:00,
2013-01-23 11:15:00,10.5,-9.6,30.05,West,262,16.0,18.0,39,0.00,,OVC021,0.00,478.00,VWS V14.01,2013-01-23 16:15:00,
2013-01-23 11:19:00,10.9,-9.7,30.04,WNW,289,9.0,18.0,38,0.00,,OVC021,0.00,480.00,VWS V14.01,2013-01-23 16:19:00,
2013-01-23 11:20:00,10.9,-9.7,30.04,NW,306,7.0,16.0,38,0.00,,OVC021,0.00,480.00,VWS V14.01,2013-01-23 16:20:00,
2013-01-23 11:25:00,11.1,-10.1,30.04,West,279,9.0,17.0,37,0.00,,OVC021,0.00,483.00,VWS V14.01,2013-01-23 16:25:00,
2013-01-23 11:30:00,10.8,-10.4,30.04,WNW,283,10.0,14.0,37,0.00,,OVC021,0.00,485.00,VWS V14.01,2013-01-23 16:30:00,
2013-01-23 11:35:00,11.2,-9.4,30.04,WNW,302,8.0,19.0,38,0.00,,OVC021,0.00,487.00,VWS V14.01,2013-01-23 16:35:00,
2013-01-23 11:40:00,10.8,-10.9,30.04,West,275,16.0,24.0,36,0.00,,OVC021,0.00,487.00,VWS V14.01,2013-01-23 16:40:00,
2013-01-23 11:45:00,10.8,-10.9,30.03,West,265,11.0,22.0,36,0.00,,OVC021,0.00,487.00,VWS V14.01,2013-01-23 16:45:00,
2013-01-23 11:50:00,11.6,-9.1,30.03,WNW,291,18.0,18.0,38,0.00,,OVC021,0.00,485.00,VWS V14.01,2013-01-23 16:50:00,
2013-01-23 11:55:00,11.6,-9.6,30.03,WNW,285,14.0,18.0,37,0.00,,OVC021,0.00,483.00,VWS V14.01,2013-01-23 16:55:00,
2013-01-23 12:00:00,11.7,-9.0,30.02,NW,319,10.0,15.0,38,0.00,,OVC021,0.00,483.00,VWS V14.01,2013-01-23 17:00:00,
2013-01-23 12:05:00,11.5,-10.3,30.02,WSW,255,9.0,18.0,36,0.00,,OVC021,0.00,482.00,VWS V14.01,2013-01-23 17:05:00,
2013-01-23 12:10:00,11.6,-9.6,30.02,NW,315,7.0,14.0,37,0.00,,OVC021,0.00,482.00,VWS V14.01,2013-01-23 17:10:00,
2013-01-23 12:15:00,12.0,-9.8,30.02,West,267,13.0,13.0,36,0.00,,OVC021,0.00,480.00,VWS V14.01,2013-01-23 17:15:00,
2013-01-23 12:20:00,11.8,-10.6,30.01,West,261,9.0,21.0,35,0.00,,OVC021,0.00,476.00,VWS V14.01,2013-01-23 17:20:00,
2013-01-23 12:25:00,12.0,-10.4,30.01,WNW,291,9.0,21.0,35,0.00,,OVC021,0.00,475.00,VWS V14.01,2013-01-23 17:25:00,
2013-01-23 12:26:00,11.9,-11.1,30.01,WNW,294,18.0,18.0,34,0.00,,OVC021,0.00,473.00,VWS V14.01,2013-01-23 17:26:00,
2013-01-23 12:30:00,12.0,-10.4,30.01,West,272,14.0,18.0,35,0.00,,OVC021,0.00,471.00,VWS V14.01,2013-01-23 17:30:00,
2013-01-23 12:31:00,12.0,-11.0,30.01,West,263,11.0,14.0,34,0.00,,OVC021,0.00,469.00,VWS V14.01,2013-01-23 17:31:00,
2013-01-23 12:35:00,12.1,-10.9,30.01,WNW,291,10.0,16.0,34,0.00,,OVC021,0.00,469.00,VWS V14.01,2013-01-23 17:35:00,
2013-01-23 12:36:00,12.2,-10.8,30.00,WSW,242,13.0,16.0,34,0.00,,OVC021,0.00,466.00,VWS V14.01,2013-01-23 17:36:00,
2013-01-23 12:40:00,12.3,-10.7,30.01,West,274,7.0,17.0,34,0.00,,OVC021,0.00,450.00,VWS V14.01,2013-01-23 17:40:00,
2013-01-23 12:41:00,12.7,-9.2,30.00,SW,215,7.0,12.0,36,0.00,,OVC021,0.00,413.00,VWS V14.01,2013-01-23 17:41:00,
2013-01-23 12:45:00,12.9,-9.6,30.00,West,270,9.0,12.0,35,0.00,,OVC021,0.00,348.00,VWS V14.01,2013-01-23 17:45:00,
2013-01-23 12:46:00,13.0,-10.1,30.00,West,261,16.0,16.0,34,0.00,,OVC021,0.00,264.00,VWS V14.01,2013-01-23 17:46:00,
2013-01-23 12:50:00,12.8,-10.3,30.00,WSW,257,16.0,18.0,34,0.00,,OVC021,0.00,176.00,VWS V14.01,2013-01-23 17:50:00,
2013-01-23 12:51:00,12.6,-11.0,30.00,WNW,290,6.0,19.0,33,0.00,,OVC021,0.00,102.00,VWS V14.01,2013-01-23 17:51:00,
2013-01-23 12:55:00,12.6,-10.4,30.00,WSW,248,10.0,19.0,34,0.00,,OVC021,0.00,56.00,VWS V14.01,2013-01-23 17:55:00,
2013-01-23 12:56:00,12.8,-10.3,30.00,NW,321,7.0,18.0,34,0.00,,OVC021,0.00,37.00,VWS V14.01,2013-01-23 17:56:00,
2013-01-23 13:00:00,12.9,-10.8,30.00,South,185,11.0,18.0,33,0.00,,OVC021,0.00,35.00,VWS V14.01,2013-01-23 18:00:00,
2013-01-23 13:01:00,13.2,-9.9,30.00,WNW,291,10.0,19.0,34,0.00,,OVC021,0.00,35.00,VWS V14.01,2013-01-23 18:01:00,
2013-01-23 13:05:00,13.3,-9.8,30.00,WNW,288,10.0,19.0,34,0.00,,OVC021,0.00,35.00,VWS V14.01,2013-01-23 18:05:00,
2013-01-23 13:06:00,13.0,-10.7,29.99,NW,309,10.0,17.0,33,0.00,,OVC021,0.00,35.00,VWS V14.01,2013-01-23 18:06:00,
2013-01-23 13:10:00,12.9,-10.8,29.99,WSW,242,16.0,17.0,33,0.00,,OVC021,0.00,35.00,VWS V14.01,2013-01-23 18:10:00,
2013-01-23 13:11:00,13.1,-10.6,29.99,West,261,8.0,23.0,33,0.00,,OVC021,0.00,35.00,VWS V14.01,2013-01-23 18:11:00,
2013-01-23 13:15:00,13.4,-9.7,29.99,West,267,6.0,23.0,34,0.00,,OVC021,0.00,33.00,VWS V14.01,2013-01-23 18:15:00,
2013-01-23 13:16:00,13.8,-9.4,29.99,West,259,11.0,12.0,34,0.00,,OVC021,0.00,33.00,VWS V14.01,2013-01-23 18:16:00,
2013-01-23 13:20:00,13.6,-10.8,29.99,WNW,290,10.0,16.0,32,0.00,,OVC021,0.00,33.00,VWS V14.01,2013-01-23 18:20:00,
2013-01-23 13:21:00,13.3,-11.0,29.99,West,280,6.0,16.0,32,0.00,,OVC021,0.00,35.00,VWS V14.01,2013-01-23 18:21:00,
2013-01-23 13:25:00,13.2,-11.1,29.99,NNW,343,5.0,16.0,32,0.00,,OVC021,0.00,33.00,VWS V14.01,2013-01-23 18:25:00,
2013-01-23 13:26:00,13.5,-10.2,29.99,WNW,290,12.0,18.0,33,0.00,,OVC021,0.00,33.00,VWS V14.01,2013-01-23 18:26:00,
2013-01-23 13:30:00,13.5,-10.9,30.00,WNW,284,16.0,18.0,32,0.00,,OVC021,0.00,33.00,VWS V14.01,2013-01-23 18:30:00,
2013-01-23 13:32:00,13.6,-11.4,30.00,NW,321,11.0,22.0,31,0.00,,OVC021,0.00,33.00,VWS V14.01,2013-01-23 18:32:00,
2013-01-23 13:35:00,13.6,-11.4,30.00,NW,304,14.0,22.0,31,0.00,,OVC021,0.00,32.00,VWS V14.01,2013-01-23 18:35:00,
2013-01-23 13:37:00,13.4,-11.6,29.99,WNW,298,17.0,19.0,31,0.00,,OVC021,0.00,32.00,VWS V14.01,2013-01-23 18:37:00,
2013-01-23 13:40:00,13.4,-11.6,30.00,NW,309,11.0,20.0,31,0.00,,OVC021,0.00,32.00,VWS V14.01,2013-01-23 18:40:00,
2013-01-23 13:42:00,13.1,-12.5,29.99,WNW,282,11.0,20.0,30,0.00,,OVC021,0.00,32.00,VWS V14.01,2013-01-23 18:42:00,
2013-01-23 13:45:00,13.3,-11.7,30.00,West,277,12.0,20.0,31,0.00,,OVC021,0.00,32.00,VWS V14.01,2013-01-23 18:45:00,
2013-01-23 13:47:00,13.7,-11.3,29.99,NW,317,9.0,18.0,31,0.00,,OVC021,0.00,32.00,VWS V14.01,2013-01-23 18:47:00,
2013-01-23 13:50:00,13.7,-12.0,29.99,NW,319,14.0,18.0,30,0.00,,OVC021,0.00,32.00,VWS V14.01,2013-01-23 18:50:00,
2013-01-23 13:52:00,13.3,-13.0,29.99,WNW,303,6.0,20.0,29,0.00,,OVC021,0.00,32.00,VWS V14.01,2013-01-23 18:52:00,
2013-01-23 13:55:00,13.4,-11.6,30.00,WSW,256,11.0,20.0,31,0.00,,OVC021,0.00,32.00,VWS V14.01,2013-01-23 18:55:00,
2013-01-23 13:57:00,13.7,-12.0,29.99,NNW,335,9.0,21.0,30,0.00,,OVC021,0.00,32.00,VWS V14.01,2013-01-23 18:57:00,
2013-01-23 14:00:00,13.6,-12.1,30.00,NW,315,14.0,21.0,30,0.00,,OVC021,0.00,32.00,VWS V14.01,2013-01-23 19:00:00,
2013-01-23 14:02:00,13.5,-12.8,30.00,West,264,14.0,17.0,29,0.00,,OVC021,0.00,32.00,VWS V14.01,2013-01-23 19:02:00,
2013-01-23 14:05:00,13.6,-12.1,30.00,West,268,13.0,17.0,30,0.00,,OVC021,0.00,32.00,VWS V14.01,2013-01-23 19:05:00,
2013-01-23 14:07:00,13.5,-13.5,30.00,NW,308,16.0,24.0,28,0.00,,OVC021,0.00,30.00,VWS V14.01,2013-01-23 19:07:00,
2013-01-23 14:10:00,13.5,-13.5,30.00,NW,319,12.0,24.0,28,0.00,,OVC021,0.00,30.00,VWS V14.01,2013-01-23 19:10:00,
2013-01-23 14:12:00,13.6,-13.4,30.00,West,281,9.0,20.0,28,0.00,,OVC021,0.00,30.00,VWS V14.01,2013-01-23 19:12:00,
2013-01-23 14:15:00,13.6,-12.7,30.00,West,277,6.0,20.0,29,0.00,,OVC021,0.00,30.00,VWS V14.01,2013-01-23 19:15:00,
2013-01-23 14:17:00,13.8,-11.9,30.00,West,271,13.0,16.0,30,0.00,,OVC021,0.00,30.00,VWS V14.01,2013-01-23 19:17:00,
2013-01-23 14:20:00,13.8,-12.6,30.00,West,273,12.0,16.0,29,0.00,,OVC021,0.00,30.00,VWS V14.01,2013-01-23 19:20:00,
2013-01-23 14:22:00,13.5,-12.8,30.00,West,259,10.0,23.0,29,0.00,,OVC021,0.00,30.00,VWS V14.01,2013-01-23 19:22:00,
2013-01-23 14:25:00,13.5,-12.8,30.00,WNW,298,12.0,23.0,29,0.00,,OVC021,0.00,30.00,VWS V14.01,2013-01-23 19:25:00,
2013-01-23 14:27:00,13.5,-13.5,30.00,NW,310,9.0,24.0,28,0.00,,OVC021,0.00,30.00,VWS V14.01,2013-01-23 19:27:00,
2013-01-23 14:30:00,13.4,-13.6,30.00,West,271,8.0,24.0,28,0.00,,OVC021,0.00,30.00,VWS V14.01,2013-01-23 19:30:00,
2013-01-23 14:33:00,13.5,-12.8,30.00,WNW,294,18.0,18.0,29,0.00,,OVC021,0.00,30.00,VWS V14.01,2013-01-23 19:33:00,
2013-01-23 14:35:00,13.5,-12.8,30.00,NW,309,12.0,18.0,29,0.00,,OVC021,0.00,30.00,VWS V14.01,2013-01-23 19:35:00,
2013-01-23 14:38:00,13.6,-12.7,30.00,WNW,284,9.0,21.0,29,0.00,,OVC021,0.00,40.00,VWS V14.01,2013-01-23 19:38:00,
2013-01-23 14:40:00,13.6,-12.7,30.00,WNW,302,10.0,21.0,29,0.00,,OVC021,0.00,46.00,VWS V14.01,2013-01-23 19:40:00,
2013-01-23 14:43:00,13.4,-12.9,30.00,West,278,7.0,26.0,29,0.00,,OVC021,0.00,83.00,VWS V14.01,2013-01-23 19:43:00,
2013-01-23 14:45:00,13.4,-12.9,30.00,West,275,14.0,26.0,29,0.00,,OVC021,0.00,95.00,VWS V14.01,2013-01-23 19:45:00,
2013-01-23 14:48:00,13.4,-12.9,30.00,NW,314,18.0,20.0,29,0.00,,OVC021,0.00,149.00,VWS V14.01,2013-01-23 19:48:00,
2013-01-23 14:50:00,13.4,-12.9,30.00,WNW,288,15.0,20.0,29,0.00,,OVC021,0.00,149.00,VWS V14.01,2013-01-23 19:50:00,
2013-01-23 14:53:00,13.5,-12.8,30.01,West,269,5.0,19.0,29,0.00,,OVC021,0.00,202.00,VWS V14.01,2013-01-23 19:53:00,
2013-01-23 14:55:00,13.5,-12.8,30.01,WNW,295,9.0,19.0,29,0.00,,OVC021,0.00,202.00,VWS V14.01,2013-01-23 19:55:00,
2013-01-23 14:58:00,13.3,-13.7,30.00,WNW,284,11.0,18.0,28,0.00,,OVC021,0.00,223.00,VWS V14.01,2013-01-23 19:58:00,
2013-01-23 15:00:00,13.3,-13.7,30.00,NW,315,9.0,18.0,28,0.00,,OVC021,0.00,223.00,VWS V14.01,2013-01-23 20:00:00,
2013-01-23 15:03:00,13.4,-13.6,30.01,NW,313,7.0,15.0,28,0.00,,OVC021,0.00,216.00,VWS V14.01,2013-01-23 20:03:00,
2013-01-23 15:05:00,13.4,-13.6,30.01,WNW,292,6.0,15.0,28,0.00,,OVC021,0.00,216.00,VWS V14.01,2013-01-23 20:05:00,
2013-01-23 15:08:00,13.5,-12.8,30.00,NW,310,6.0,17.0,29,0.00,,OVC021,0.00,204.00,VWS V14.01,2013-01-23 20:08:00,
2013-01-23 15:10:00,13.5,-12.8,30.00,NW,314,6.0,17.0,29,0.00,,OVC021,0.00,204.00,VWS V14.01,2013-01-23 20:10:00,
2013-01-23 15:13:00,13.5,-12.8,30.01,WNW,300,9.0,10.0,29,0.00,,OVC021,0.00,178.00,VWS V14.01,2013-01-23 20:13:00,
2013-01-23 15:15:00,13.5,-12.8,30.01,NW,317,10.0,20.0,29,0.00,,OVC021,0.00,178.00,VWS V14.01,2013-01-23 20:15:00,
2013-01-23 15:18:00,13.5,-12.8,30.01,WNW,288,13.0,13.0,29,0.00,,OVC021,0.00,146.00,VWS V14.01,2013-01-23 20:18:00,
2013-01-23 15:20:00,13.5,-12.8,30.01,NW,322,6.0,16.0,29,0.00,,OVC021,0.00,146.00,VWS V14.01,2013-01-23 20:20:00,
2013-01-23 15:23:00,13.5,-13.5,30.01,West,267,13.0,13.0,28,0.00,,OVC021,0.00,116.00,VWS V14.01,2013-01-23 20:23:00,
2013-01-23 15:25:00,13.5,-13.5,30.00,West,274,7.0,18.0,28,0.00,,OVC021,0.00,118.00,VWS V14.01,2013-01-23 20:25:00,
2013-01-23 15:28:00,13.4,-12.9,30.01,WNW,288,8.0,10.0,29,0.00,,OVC021,0.00,104.00,VWS V14.01,2013-01-23 20:28:00,
2013-01-23 15:30:00,13.4,-12.9,30.01,WNW,300,8.0,19.0,29,0.00,,OVC021,0.00,104.00,VWS V14.01,2013-01-23 20:30:00,
2013-01-23 15:33:00,13.1,-13.2,30.01,West,279,11.0,13.0,29,0.00,,OVC021,0.00,100.00,VWS V14.01,2013-01-23 20:33:00,
2013-01-23 15:35:00,13.1,-13.2,30.01,NW,317,11.0,17.0,29,0.00,,OVC021,0.00,100.00,VWS V14.01,2013-01-23 20:35:00,
2013-01-23 15:38:00,13.2,-12.4,30.01,NNW,327,7.0,7.0,30,0.00,,OVC021,0.00,100.00,VWS V14.01,2013-01-23 20:38:00,
2013-01-23 15:40:00,13.1,-13.2,30.01,WNW,286,4.0,13.0,29,0.00,,OVC021,0.00,100.00,VWS V14.01,2013-01-23 20:40:00,
2013-01-23 15:44:00,13.2,-13.1,30.01,NW,326,12.0,12.0,29,0.00,,OVC021,0.00,97.00,VWS V14.01,2013-01-23 20:44:00,
2013-01-23 15:45:00,13.2,-13.1,30.01,NW,323,5.0,13.0,29,0.00,,OVC021,0.00,97.00,VWS V14.01,2013-01-23 20:45:00,
2013-01-23 15:49:00,12.9,-13.4,30.01,WNW,294,5.0,8.0,29,0.00,,OVC021,0.00,84.00,VWS V14.01,2013-01-23 20:49:00,
2013-01-23 15:50:00,12.9,-13.4,30.01,WNW,290,5.0,15.0,29,0.00,,OVC021,0.00,84.00,VWS V14.01,2013-01-23 20:50:00,
2013-01-23 15:54:00,13.0,-12.6,30.01,WNW,298,10.0,12.0,30,0.00,,OVC021,0.00,72.00,VWS V14.01,2013-01-23 20:54:00,
2013-01-23 15:55:00,13.0,-12.6,30.02,North,349,10.0,10.0,30,0.00,,OVC021,0.00,72.00,VWS V14.01,2013-01-23 20:55:00,
2013-01-23 15:59:00,12.8,-13.4,30.01,NW,314,4.0,8.0,29,0.00,,OVC021,0.00,58.00,VWS V14.01,2013-01-23 20:59:00,
2013-01-23 16:00:00,12.9,-13.4,30.01,West,274,7.0,16.0,29,0.00,,OVC021,0.00,60.00,VWS V14.01,2013-01-23 21:00:00,
2013-01-23 16:04:00,12.7,-12.9,30.01,WNW,303,9.0,12.0,30,0.00,,OVC021,0.00,46.00,VWS V14.01,2013-01-23 21:04:00,
2013-01-23 16:05:00,12.6,-12.9,30.01,WNW,297,11.0,19.0,30,0.00,,OVC021,0.00,47.00,VWS V14.01,2013-01-23 21:05:00,
2013-01-23 16:09:00,12.5,-13.0,30.02,NW,304,8.0,16.0,30,0.00,,OVC021,0.00,35.00,VWS V14.01,2013-01-23 21:09:00,
2013-01-23 16:10:00,12.5,-13.7,30.02,WNW,297,10.0,21.0,29,0.00,,OVC021,0.00,37.00,VWS V14.01,2013-01-23 21:10:00,
2013-01-23 16:14:00,12.3,-13.2,30.02,NW,326,5.0,10.0,30,0.00,,OVC021,0.00,26.00,VWS V14.01,2013-01-23 21:14:00,
2013-01-23 16:15:00,12.4,-13.8,30.02,NW,313,8.0,16.0,29,0.00,,OVC021,0.00,28.00,VWS V14.01,2013-01-23 21:15:00,
2013-01-23 16:19:00,12.2,-13.3,30.02,NW,306,8.0,17.0,30,0.00,,OVC021,0.00,19.00,VWS V14.01,2013-01-23 21:19:00,
2013-01-23 16:20:00,12.2,-14.0,30.02,NW,309,10.0,17.0,29,0.00,,OVC021,0.00,19.00,VWS V14.01,2013-01-23 21:20:00,
2013-01-23 16:24:00,12.0,-13.5,30.01,NW,315,8.0,13.0,30,0.00,,OVC021,0.00,14.00,VWS V14.01,2013-01-23 21:24:00,
2013-01-23 16:25:00,12.1,-13.4,30.02,WNW,298,9.0,17.0,30,0.00,,OVC021,0.00,14.00,VWS V14.01,2013-01-23 21:25:00,
2013-01-23 16:29:00,11.8,-13.6,30.01,NW,312,16.0,18.0,30,0.00,,OVC021,0.00,11.00,VWS V14.01,2013-01-23 21:29:00,
2013-01-23 16:30:00,11.9,-12.9,30.01,WNW,290,11.0,19.0,31,0.00,,OVC021,0.00,12.00,VWS V14.01,2013-01-23 21:30:00,
2013-01-23 16:34:00,11.7,-13.1,30.02,West,281,8.0,10.0,31,0.00,,OVC021,0.00,9.00,VWS V14.01,2013-01-23 21:34:00,
2013-01-23 16:35:00,11.7,-13.1,30.02,WNW,301,6.0,18.0,31,0.00,,OVC021,0.00,11.00,VWS V14.01,2013-01-23 21:35:00,
2013-01-23 16:40:00,11.6,-12.5,30.02,NW,310,2.0,5.0,32,0.00,,OVC021,0.00,7.00,VWS V14.01,2013-01-23 21:40:00,
2013-01-23 16:45:00,11.4,-12.7,30.02,NNW,329,3.0,8.0,32,0.00,,OVC021,0.00,5.00,VWS V14.01,2013-01-23 21:45:00,
2013-01-23 16:50:00,11.3,-12.8,30.03,NNW,327,6.0,10.0,32,0.00,,OVC021,0.00,0.00,VWS V14.01,2013-01-23 21:50:00,
2013-01-23 16:55:00,11.1,-13.0,30.03,NNW,327,5.0,7.0,32,0.00,,OVC021,0.00,0.00,VWS V14.01,2013-01-23 21:55:00,
2013-01-23 17:00:00,11.0,-13.1,30.03,NNW,327,5.0,7.0,32,0.00,,OVC021,0.00,0.00,VWS V14.01,2013-01-23 22:00:00,
2013-01-23 17:05:00,10.8,-12.6,30.03,NW,311,5.0,8.0,33,0.00,,OVC021,0.00,0.00,VWS V14.01,2013-01-23 22:05:00,
2013-01-23 17:10:00,10.7,-12.1,30.03,NW,326,4.0,6.0,34,0.00,,OVC021,0.00,0.00,VWS V14.01,2013-01-23 22:10:00,
2013-01-23 17:15:00,10.7,-12.1,30.03,NW,311,3.0,7.0,34,0.00,,OVC021,0.00,0.00,VWS V14.01,2013-01-23 22:15:00,
2013-01-23 17:20:00,10.6,-12.2,30.03,WNW,291,5.0,7.0,34,0.00,,OVC021,0.00,0.00,VWS V14.01,2013-01-23 22:20:00,
2013-01-23 17:21:00,10.6,-12.2,30.03,WNW,293,5.0,7.0,34,0.00,,OVC021,0.00,0.00,VWS V14.01,2013-01-23 22:21:00,
2013-01-23 17:25:00,10.5,-12.3,30.04,WNW,294,1.0,7.0,34,0.00,,OVC021,0.00,0.00,VWS V14.01,2013-01-23 22:25:00,
2013-01-23 17:26:00,10.5,-12.3,30.04,NW,309,5.0,5.0,34,0.00,,OVC021,0.00,0.00,VWS V14.01,2013-01-23 22:26:00,
2013-01-23 17:30:00,10.4,-11.8,30.04,WNW,292,3.0,6.0,35,0.00,,OVC021,0.00,0.00,VWS V14.01,2013-01-23 22:30:00,
2013-01-23 17:31:00,10.4,-11.8,30.04,NW,317,3.0,3.0,35,0.00,,OVC021,0.00,0.00,VWS V14.01,2013-01-23 22:31:00,
2013-01-23 17:35:00,10.3,-11.9,30.04,NW,317,2.0,4.0,35,0.00,,OVC021,0.00,0.00,VWS V14.01,2013-01-23 22:35:00,
2013-01-23 17:36:00,10.2,-12.0,30.04,NW,317,0.0,3.0,35,0.00,,OVC021,0.00,0.00,VWS V14.01,2013-01-23 22:36:00,
2013-01-23 17:40:00,10.2,-12.0,30.04,NW,317,3.0,3.0,35,0.00,,OVC021,0.00,0.00,VWS V14.01,2013-01-23 22:40:00,
2013-01-23 17:41:00,10.2,-12.0,30.04,West,281,5.0,6.0,35,0.00,,OVC021,0.00,0.00,VWS V14.01,2013-01-23 22:41:00,
2013-01-23 17:45:00,10.2,-11.4,30.04,WNW,286,4.0,8.0,36,0.00,,OVC021,0.00,0.00,VWS V14.01,2013-01-23 22:45:00,
2013-01-23 17:46:00,10.2,-11.4,30.04,WNW,298,2.0,5.0,36,0.00,,OVC021,0.00,0.00,VWS V14.01,2013-01-23 22:46:00,
2013-01-23 17:50:00,10.1,-11.0,30.04,WNW,293,3.0,5.0,37,0.00,,OVC021,0.00,0.00,VWS V14.01,2013-01-23 22:50:00,
2013-01-23 17:51:00,10.0,-11.1,30.04,WNW,301,4.0,7.0,37,0.00,,OVC021,0.00,0.00,VWS V14.01,2013-01-23 22:51:00,
2013-01-23 17:55:00,10.0,-11.1,30.04,WNW,294,7.0,7.0,37,0.00,,OVC021,0.00,0.00,VWS V14.01,2013-01-23 22:55:00,
2013-01-23 17:56:00,10.0,-10.5,30.04,West,267,8.0,8.0,38,0.00,,OVC021,0.00,0.00,VWS V14.01,2013-01-23 22:56:00,
2013-01-23 18:00:00,9.9,-10.6,30.05,WNW,288,8.0,9.0,38,0.00,,OVC021,0.00,0.00,VWS V14.01,2013-01-23 23:00:00,
2013-01-23 18:02:00,9.9,-10.6,30.05,WNW,295,6.0,10.0,38,0.00,,OVC021,0.00,0.00,VWS V14.01,2013-01-23 23:02:00,
2013-01-23 18:05:00,9.9,-10.1,30.04,NW,308,5.0,10.0,39,0.00,,OVC021,0.00,0.00,VWS V14.01,2013-01-23 23:05:00,
2013-01-23 18:07:00,9.8,-10.2,30.05,WNW,296,3.0,6.0,39,0.00,,OVC021,0.00,0.00,VWS V14.01,2013-01-23 23:07:00,
2013-01-23 18:10:00,9.8,-10.2,30.05,NW,312,3.0,7.0,39,0.00,,OVC021,0.00,0.00,VWS V14.01,2013-01-23 23:10:00,
2013-01-23 18:12:00,9.8,-10.2,30.05,NW,317,2.0,6.0,39,0.00,,OVC021,0.00,0.00,VWS V14.01,2013-01-23 23:12:00,
2013-01-23 18:15:00,9.7,-9.8,30.05,NW,320,1.0,6.0,40,0.00,,OVC021,0.00,0.00,VWS V14.01,2013-01-23 23:15:00,
2013-01-23 18:17:00,9.6,-10.4,30.05,WNW,300,1.0,5.0,39,0.00,,OVC021,0.00,0.00,VWS V14.01,2013-01-23 23:17:00,
2013-01-23 18:20:00,9.6,-9.9,30.05,WNW,300,1.0,5.0,40,0.00,,OVC021,0.00,0.00,VWS V14.01,2013-01-23 23:20:00,
2013-01-23 18:22:00,9.6,-9.9,30.05,WNW,300,2.0,5.0,40,0.00,,OVC021,0.00,0.00,VWS V14.01,2013-01-23 23:22:00,
2013-01-23 18:25:00,9.6,-9.9,30.05,WNW,300,1.0,5.0,40,0.00,,OVC021,0.00,0.00,VWS V14.01,2013-01-23 23:25:00,
2013-01-23 18:27:00,9.5,-9.9,30.05,NW,309,2.0,6.0,40,0.00,,OVC021,0.00,0.00,VWS V14.01,2013-01-23 23:27:00,
2013-01-23 18:30:00,9.5,-9.9,30.05,NW,307,4.0,6.0,40,0.00,,OVC021,0.00,0.00,VWS V14.01,2013-01-23 23:30:00,
2013-01-23 18:32:00,9.4,-10.0,30.05,WNW,294,6.0,6.0,40,0.00,,OVC021,0.00,0.00,VWS V14.01,2013-01-23 23:32:00,
2013-01-23 18:35:00,9.4,-10.0,30.05,WNW,302,2.0,6.0,40,0.00,,OVC021,0.00,0.00,VWS V14.01,2013-01-23 23:35:00,
2013-01-23 18:37:00,9.3,-9.6,30.05,NW,312,4.0,7.0,41,0.00,,OVC021,0.00,0.00,VWS V14.01,2013-01-23 23:37:00,
2013-01-23 18:40:00,9.3,-9.6,30.06,WNW,302,3.0,7.0,41,0.00,,OVC021,0.00,0.00,VWS V14.01,2013-01-23 23:40:00,
2013-01-23 18:42:00,9.3,-9.6,30.06,NW,311,4.0,5.0,41,0.00,,OVC021,0.00,0.00,VWS V14.01,2013-01-23 23:42:00,
2013-01-23 18:45:00,9.3,-9.6,30.06,NW,311,1.0,5.0,41,0.00,,OVC021,0.00,0.00,VWS V14.01,2013-01-23 23:45:00,
2013-01-23 18:47:00,9.1,-9.3,30.06,NW,311,0.0,4.0,42,0.00,,OVC021,0.00,0.00,VWS V14.01,2013-01-23 23:47:00,
2013-01-23 18:50:00,9.1,-9.3,30.06,NW,311,1.0,4.0,42,0.00,,OVC021,0.00,0.00,VWS V14.01,2013-01-23 23:50:00,
2013-01-23 18:52:00,9.0,-9.4,30.06,NW,319,4.0,4.0,42,0.00,,OVC021,0.00,0.00,VWS V14.01,2013-01-23 23:52:00,
2013-01-23 18:55:00,9.0,-9.4,30.06,NW,322,2.0,5.0,42,0.00,,OVC021,0.00,0.00,VWS V14.01,2013-01-23 23:55:00,
2013-01-23 18:57:00,8.9,-9.5,30.06,NW,322,0.0,3.0,42,0.00,,OVC021,0.00,0.00,VWS V14.01,2013-01-23 23:57:00,
2013-01-23 19:00:00,8.9,-9.5,30.06,NW,323,0.0,3.0,42,0.00,,OVC021,0.00,0.00,VWS V14.01,2013-01-24 00:00:00,
2013-01-23 19:05:00,8.8,-9.1,30.06,NW,324,4.0,6.0,43,0.00,,OVC021,0.00,0.00,VWS V14.01,2013-01-24 00:05:00,
2013-01-23 19:10:00,8.7,-9.2,30.06,NW,314,5.0,6.0,43,0.00,,OVC021,0.00,0.00,VWS V14.01,2013-01-24 00:10:00,
2013-01-23 19:15:00,8.7,-8.7,30.06,NW,323,0.0,8.0,44,0.00,,OVC021,0.00,0.00,VWS V14.01,2013-01-24 00:15:00,
2013-01-23 19:20:00,8.6,-9.3,30.06,North,10,3.0,5.0,43,0.00,,OVC021,0.00,0.00,VWS V14.01,2013-01-24 00:20:00,
2013-01-23 19:25:00,8.5,-9.4,30.06,NNW,327,0.0,3.0,43,0.00,,OVC021,0.00,0.00,VWS V14.01,2013-01-24 00:25:00,
2013-01-23 19:30:00,8.3,-10.1,30.06,NNW,327,2.0,4.0,42,0.00,,OVC021,0.00,0.00,VWS V14.01,2013-01-24 00:30:00,
2013-01-23 19:35:00,8.1,-11.2,30.06,NNW,327,3.0,4.0,40,0.00,,OVC021,0.00,0.00,VWS V14.01,2013-01-24 00:35:00,
2013-01-23 19:40:00,8.0,-10.8,30.06,NNW,329,3.0,5.0,41,0.00,,OVC021,0.00,0.00,VWS V14.01,2013-01-24 00:40:00,
2013-01-23 19:45:00,7.8,-11.5,30.06,NW,324,2.0,4.0,40,0.00,,OVC021,0.00,0.00,VWS V14.01,2013-01-24 00:45:00,
2013-01-23 19:50:00,7.9,-11.4,30.06,NW,313,2.0,7.0,40,0.00,,OVC021,0.00,0.00,VWS V14.01,2013-01-24 00:50:00,
2013-01-23 19:55:00,7.8,-10.5,30.07,NW,313,2.0,4.0,42,0.00,,OVC021,0.00,0.00,VWS V14.01,2013-01-24 00:55:00,
2013-01-23 20:00:00,7.7,-10.6,30.07,NW,313,1.0,4.0,42,0.00,,OVC021,0.00,0.00,VWS V14.01,2013-01-24 01:00:00,
2013-01-23 20:05:00,7.7,-10.6,30.07,NW,313,2.0,3.0,42,0.00,,OVC021,0.00,0.00,VWS V14.01,2013-01-24 01:05:00,
2013-01-23 20:10:00,7.5,-10.3,30.07,NW,312,1.0,3.0,43,0.00,,OVC021,0.00,0.00,VWS V14.01,2013-01-24 01:10:00,
2013-01-23 20:15:00,7.3,-10.0,30.07,NW,313,2.0,3.0,44,0.00,,OVC021,0.00,0.00,VWS V14.01,2013-01-24 01:15:00,
2013-01-23 20:20:00,7.2,-10.1,30.07,NW,313,3.0,4.0,44,0.00,,OVC021,0.00,0.00,VWS V14.01,2013-01-24 01:20:00,
2013-01-23 20:25:00,7.1,-10.2,30.07,NW,310,2.0,6.0,44,0.00,,OVC021,0.00,0.00,VWS V14.01,2013-01-24 01:25:00,
2013-01-23 20:30:00,7.0,-9.9,30.07,NW,311,2.0,3.0,45,0.00,,OVC021,0.00,0.00,VWS V14.01,2013-01-24 01:30:00,
2013-01-23 20:35:00,7.0,-9.9,30.07,NW,308,2.0,9.0,45,0.00,,OVC021,0.00,0.00,VWS V14.01,2013-01-24 01:35:00,
2013-01-23 20:40:00,7.0,-9.4,30.07,WNW,290,5.0,7.0,46,0.00,,OVC021,0.00,0.00,VWS V14.01,2013-01-24 01:40:00,
2013-01-23 20:45:00,7.0,-9.0,30.07,NW,308,2.0,6.0,47,0.00,,OVC021,0.00,0.00,VWS V14.01,2013-01-24 01:45:00,
2013-01-23 20:50:00,7.1,-8.9,30.07,NW,326,3.0,7.0,47,0.00,,OVC021,0.00,0.00,VWS V14.01,2013-01-24 01:50:00,
2013-01-23 20:55:00,7.0,-8.5,30.07,NW,320,6.0,7.0,48,0.00,,OVC021,0.00,0.00,VWS V14.01,2013-01-24 01:55:00,
2013-01-23 21:00:00,7.0,-8.5,30.07,WNW,299,7.0,8.0,48,0.00,,OVC021,0.00,0.00,VWS V14.01,2013-01-24 02:00:00,
2013-01-23 21:05:00,7.0,-8.5,30.07,NW,319,3.0,7.0,48,0.00,,OVC021,0.00,0.00,VWS V14.01,2013-01-24 02:05:00,
2013-01-23 21:10:00,6.9,-8.6,30.07,NW,304,3.0,8.0,48,0.00,,OVC021,0.00,0.00,VWS V14.01,2013-01-24 02:10:00,
2013-01-23 21:15:00,6.8,-8.3,30.07,NW,325,5.0,5.0,49,0.00,,OVC021,0.00,0.00,VWS V14.01,2013-01-24 02:15:00,
2013-01-23 21:20:00,6.8,-8.3,30.07,West,279,3.0,5.0,49,0.00,,OVC021,0.00,0.00,VWS V14.01,2013-01-24 02:20:00,
2013-01-23 21:25:00,6.7,-8.4,30.07,WNW,292,1.0,7.0,49,0.00,,OVC021,0.00,0.00,VWS V14.01,2013-01-24 02:25:00,
2013-01-23 21:30:00,6.6,-8.5,30.07,WNW,296,2.0,6.0,49,0.00,,OVC021,0.00,0.00,VWS V14.01,2013-01-24 02:30:00,
2013-01-23 21:35:00,6.5,-8.6,30.07,WNW,284,2.0,6.0,49,0.00,,OVC021,0.00,0.00,VWS V14.01,2013-01-24 02:35:00,
2013-01-23 21:40:00,6.5,-8.6,30.07,WNW,286,4.0,6.0,49,0.00,,OVC021,0.00,0.00,VWS V14.01,2013-01-24 02:40:00,
2013-01-23 21:45:00,6.4,-8.7,30.07,WNW,284,3.0,6.0,49,0.00,,OVC021,0.00,0.00,VWS V14.01,2013-01-24 02:45:00,
2013-01-23 21:50:00,6.4,-8.7,30.07,WNW,291,3.0,9.0,49,0.00,,OVC021,0.00,0.00,VWS V14.01,2013-01-24 02:50:00,
2013-01-23 21:55:00,6.3,-8.8,30.07,WNW,300,5.0,13.0,49,0.00,,OVC021,0.00,0.00,VWS V14.01,2013-01-24 02:55:00,
2013-01-23 22:00:00,6.3,-8.8,30.07,WNW,289,10.0,10.0,49,0.00,,OVC021,0.00,0.00,VWS V14.01,2013-01-24 03:00:00,
2013-01-23 22:05:00,6.3,-8.8,30.07,WNW,295,4.0,10.0,49,0.00,,OVC021,0.00,0.00,VWS V14.01,2013-01-24 03:05:00,
2013-01-23 22:10:00,6.2,-8.9,30.07,WNW,301,10.0,10.0,49,0.00,,OVC021,0.00,0.00,VWS V14.01,2013-01-24 03:10:00,
2013-01-23 22:15:00,6.2,-8.9,30.07,West,281,3.0,10.0,49,0.00,,OVC021,0.00,0.00,VWS V14.01,2013-01-24 03:15:00,
2013-01-23 22:20:00,6.0,-9.1,30.07,WNW,301,4.0,7.0,49,0.00,,OVC021,0.00,0.00,VWS V14.01,2013-01-24 03:20:00,
2013-01-23 22:25:00,5.9,-8.7,30.07,NW,311,6.0,10.0,50,0.00,,OVC021,0.00,0.00,VWS V14.01,2013-01-24 03:25:00,
2013-01-23 22:30:00,5.9,-8.7,30.07,WNW,294,3.0,11.0,50,0.00,,OVC021,0.00,0.00,VWS V14.01,2013-01-24 03:30:00,
2013-01-23 22:35:00,5.8,-8.8,30.06,West,274,7.0,9.0,50,0.00,,OVC021,0.00,0.00,VWS V14.01,2013-01-24 03:35:00,
2013-01-23 22:40:00,5.7,-8.9,30.06,WNW,297,6.0,8.0,50,0.00,,OVC021,0.00,0.00,VWS V14.01,2013-01-24 03:40:00,
2013-01-23 22:45:00,5.7,-8.9,30.07,West,273,6.0,9.0,50,0.00,,OVC021,0.00,0.00,VWS V14.01,2013-01-24 03:45:00,
2013-01-23 22:50:00,5.5,-9.1,30.07,West,274,8.0,8.0,50,0.00,,OVC021,0.00,0.00,VWS V14.01,2013-01-24 03:50:00,
2013-01-23 22:55:00,5.5,-9.1,30.07,WNW,299,3.0,9.0,50,0.00,,OVC021,0.00,0.00,VWS V14.01,2013-01-24 03:55:00,
2013-01-23 23:00:00,5.4,-8.8,30.07,WNW,292,7.0,9.0,51,0.00,,OVC021,0.00,0.00,VWS V14.01,2013-01-24 04:00:00,
2013-01-23 23:05:00,5.4,-8.8,30.06,NW,306,5.0,10.0,51,0.00,,OVC021,0.00,0.00,VWS V14.01,2013-01-24 04:05:00,
2013-01-23 23:10:00,5.3,-8.9,30.06,West,276,9.0,12.0,51,0.00,,OVC021,0.00,0.00,VWS V14.01,2013-01-24 04:10:00,
2013-01-23 23:15:00,5.3,-8.9,30.06,WNW,294,6.0,10.0,51,0.00,,OVC021,0.00,0.00,VWS V14.01,2013-01-24 04:15:00,
2013-01-23 23:20:00,5.2,-9.0,30.06,WNW,302,6.0,8.0,51,0.00,,OVC021,0.00,0.00,VWS V14.01,2013-01-24 04:20:00,
2013-01-23 23:25:00,5.2,-9.0,30.06,NW,325,3.0,8.0,51,0.00,,OVC021,0.00,0.00,VWS V14.01,2013-01-24 04:25:00,
2013-01-23 23:30:00,5.1,-8.7,30.06,NW,304,1.0,5.0,52,0.00,,OVC021,0.00,0.00,VWS V14.01,2013-01-24 04:30:00,
2013-01-23 23:35:00,5.0,-8.8,30.06,West,280,3.0,6.0,52,0.00,,OVC021,0.00,0.00,VWS V14.01,2013-01-24 04:35:00,
2013-01-23 23:40:00,4.9,-8.5,30.06,West,279,3.0,6.0,53,0.00,,OVC021,0.00,0.00,VWS V14.01,2013-01-24 04:40:00,
2013-01-23 23:45:00,4.7,-8.7,30.06,West,272,3.0,5.0,53,0.00,,OVC021,0.00,0.00,VWS V14.01,2013-01-24 04:45:00,
2013-01-23 23:50:00,4.6,-8.8,30.06,West,279,4.0,6.0,53,0.00,,OVC021,0.00,0.00,VWS V14.01,2013-01-24 04:50:00,
2013-01-23 23:55:00,4.6,-8.8,30.06,WNW,301,2.0,6.0,53,0.00,,OVC021,0.00,0.00,VWS V14.01,2013-01-24 04:55:00,